Theta_e
310 311 311 311 312 312 312 311 310 310 310 311 312 312 311 305 304 304 304 305 304 305 305 306 306 308 309 315 315 314 315 315 314 318 318 319 320 320 319 318 320 324 323 322 320 320 319
305 305 307 308 309 309 309 308 308 308 308 310 310 310 311 312 311 305 304 304 305 304 305 305 306 307 308 314 313 315 316 316 315 316 316 319 320 319 319 317 319 321 323 324 322 320 319
300 301 301 303 305 303 302 302 302 302 303 304 306 306 308 309 310 311 309 304 304 304 304 305 305 306 308 310 313 313 315 316 315 315 316 317 319 319 318 317 316 318 322 321 322 324 323
305 305 304 305 304 304 304 305 305 305 304 304 304 301 299 302 305 309 310 307 304 304 303 304 305 307 311 308 313 313 311 312 317 319 319 318 319 318 317 316 315 321 322 326 324 322 318
301 301 302 301 301 304 303 303 304 303 304 304 304 304 303 303 303 300 303 309 305 304 304 303 305 306 311 310 312 313 314 314 312 317 316 316 317 316 315 314 314 318 323 326 326 321 317
301 301 301 301 301 300 301 302 303 303 303 303 303 302 301 300 298 297 301 302 306 304 304 304 305 311 311 311 311 312 313 314 309 309 315 314 314 316 315 314 318 317 321 322 325 324 319
300 300 300 300 300 300 300 300 299 299 300 300 301 300 300 299 296 297 296 304 308 311 308 306 308 309 309 310 310 309 312 310 310 309 312 312 315 316 317 314 313 316 319 320 322 320 320
300 300 299 299 299 299 299 299 299 299 298 298 298 298 299 299 295 297 304 307 309 309 308 308 309 310 309 310 309 309 309 310 310 310 311 312 314 313 313 313 312 313 314 317 318 317 323
299 299 299 299 298 298 298 298 299 299 298 298 298 297 296 297 297 307 307 310 308 309 308 308 307 308 309 309 309 308 309 309 310 309 311 312 313 312 313 315 316 313 313 315 317 312 322
298 298 298 298 298 298 298 299 298 297 297 297 297 298 296 295 298 299 305 309 309 309 308 307 306 306 308 309 309 309 308 309 308 310 310 311 311 313 313 315 315 316 314 315 317 313 317
298 298 298 297 297 297 298 298 297 297 298 297 298 296 294 293 293 297 297 302 308 308 303 303 308 308 309 309 308 309 309 309 309 309 309 311 311 312 314 314 315 316 315 316 317 316 314
298 297 297 297 297 297 297 297 297 297 296 296 295 292 292 293 292 295 300 304 308 307 307 308 308 308 309 308 308 308 309 309 309 309 309 310 312 312 312 313 315 314 315 314 315 315 317
297 298 297 297 297 297 298 297 297 297 296 296 295 292 291 293 295 294 300 303 307 307 305 309 309 309 308 309 308 309 309 309 309 311 309 310 311 310 314 315 316 317 314 317 315 317 318
297 297 297 297 297 297 296 296 296 296 296 295 295 292 292 299 299 301 301 305 307 305 306 307 309 309 309 308 308 309 309 309 308 307 307 309 312 311 308 315 316 316 314 316 316 315 312
297 297 297 297 297 296 297 296 295 295 295 295 294 293 293 297 301 300 301 303 303 305 306 308 308 309 309 308 308 307 308 309 308 308 309 309 310 308 308 310 314 315 317 314 316 313 311
297 296 297 296 296 296 296 295 295 294 294 295 294 293 293 299 300 299 301 301 302 304 304 304 306 308 310 310 308 308 307 307 309 308 309 307 309 308 308 309 309 313 314 316 315 319 315
296 296 296 296 295 295 295 295 295 294 294 294 294 294 293 294 295 296 301 302 301 302 303 303 305 305 306 309 309 309 306 307 308 309 309 308 308 308 307 308 311 309 313 312 314 314 315
295 295 295 295 295 295 295 294 294 294 294 294 294 292 293 294 295 296 298 300 294 300 299 300 303 303 305 305 310 309 309 308 307 308 309 309 307 306 308 307 307 308 310 312 314 312 314
294 295 295 294 294 294 294 294 294 293 293 294 294 293 293 294 291 297 295 294 295 295 296 300 300 301 302 304 306 307 307 307 307 307 308 308 306 304 308 307 306 308 309 311 308 308 309
294 294 294 294 294 294 294 294 293 293 293 294 294 292 293 294 295 292 294 294 294 294 295 298 299 300 300 300 302 306 306 306 306 306 308 309 306 308 310 309 307 307 308 308 309 306 309
293 294 294 294 293 293 294 294 293 293 293 293 294 293 293 289 291 291 292 293 294 294 294 296 295 295 298 298 298 300 299 299 301 306 306 310 308 307 308 308 308 308 309 308 306 310 309
293 293 293 293 293 293 293 293 293 293 292 293 293 293 293 293 293 292 292 290 293 294 294 293 293 295 294 294 294 296 297 297 301 306 305 306 307 307 305 308 307 308 308 309 309 309 310
292 293 293 293 293 293 293 293 292 293 293 293 293 293 293 293 291 292 292 292 292 293 293 293 293 293 293 293 294 296 296 296 298 298 300 306 305 305 309 307 307 308 308 307 308 309 309
292 293 293 292 292 292 292 292 292 292 292 293 293 293 294 294 291 292 293 292 292 293 293 293 292 293 294 293 294 295 296 296 298 299 300 306 306 306 307 307 310 308 307 308 308 309 309
292 292 292 292 292 292 292 292 292 293 293 293 293 293 293 293 292 292 292 293 293 292 292 292 292 292 292 293 295 295 299 303 304 302 304 305 305 309 310 307 306 306 306 307 308 308 308
292 292 292 292 292 292 292 292 292 292 292 293 292 292 292 293 293 293 292 292 291 290 290 291 292 292 293 294 296 296 298 303 305 305 304 304 306 308 306 310 310 308 305 306 307 309 307
292 292 292 292 292 292 291 291 291 292 292 292 291 292 292 293 293 293 291 292 292 290 291 290 292 291 291 292 294 295 296 302 304 306 304 306 305 309 307 306 305 304 304 305 308 307 305
291 291 291 291 291 290 291 291 291 292 292 292 292 292 292 292 291 291 292 292 291 291 291 291 291 293 293 297 299 301 305 306 302 303 305 307 308 308 304 301 306 297 304 306 302 303 306
291 291 291 291 291 291 291 291 291 292 292 292 292 291 292 291 291 290 290 290 291 291 291 291 291 292 293 295 295 296 297 297 302 304 303 306 307 305 306 304 295 296 297 299 302 301 302
Wind_Speed
10 10 11 12 11 12 14 16 17 17 16 15 17 20 22 22 21 19 19 15 15 16 15 14 13 11 12 8 20 13 14 9 9 15 16 18 15 15 6 8 16 11 5 23 25 31 29
20 19 18 18 17 18 20 22 23 22 21 20 21 21 20 19 23 21 19 18 16 16 16 15 13 13 13 12 5 5 11 12 7 17 14 17 10 17 8 11 10 6 19 10 26 31 34
16 17 16 16 18 20 19 20 21 20 21 22 22 23 25 24 22 21 22 19 18 17 17 15 14 14 19 30 11 8 11 15 13 8 17 12 19 13 3 3 6 12 10 3 5 20 11
17 17 17 17 19 19 20 21 23 23 24 25 24 25 27 25 24 26 25 23 20 19 18 16 14 13 16 14 12 18 14 13 12 8 7 10 15 9 3 6 6 5 5 9 8 13 7
14 16 17 18 17 20 20 20 21 22 23 24 25 27 28 27 27 31 28 26 21 20 18 15 14 14 14 13 25 25 24 20 15 17 13 7 10 6 4 4 2 4 5 8 7 24 8
16 16 16 18 20 20 21 22 22 24 25 25 26 28 29 29 29 29 28 26 20 16 14 12 14 6 22 15 16 21 22 23 14 13 12 10 6 5 6 7 13 11 10 7 11 14 13
13 14 16 18 17 19 20 22 24 24 25 27 28 30 29 30 29 28 25 19 7 4 13 15 14 15 5 10 7 14 25 24 17 17 6 9 6 14 19 17 4 4 2 7 6 11 13
14 16 17 19 19 21 22 24 23 25 26 28 29 30 31 32 27 19 11 7 7 17 15 26 39 32 34 14 14 18 22 20 16 10 8 3 17 12 7 9 8 9 6 7 4 9 16
15 16 18 18 21 20 22 23 24 27 27 29 31 31 33 34 24 5 7 4 9 11 7 20 32 35 48 36 21 25 32 27 13 13 18 14 7 20 18 15 15 14 12 7 5 3 12
15 17 18 19 20 22 22 24 27 26 28 29 31 32 33 35 10 15 8 4 10 7 5 8 7 10 22 24 12 29 37 29 7 19 15 14 20 6 15 18 14 15 11 11 8 6 6
18 19 19 19 20 21 22 23 25 27 28 30 31 31 30 30 27 20 16 14 9 1 4 6 5 2 8 24 3 26 40 30 13 10 10 10 14 21 20 21 13 8 4 8 10 12 6
19 21 21 22 22 23 22 23 25 25 27 30 32 33 30 32 28 12 11 12 4 2 10 6 3 2 6 19 4 3 29 29 13 7 12 20 10 15 13 18 17 8 5 9 5 4 4
20 21 23 23 25 24 23 25 26 27 28 29 33 37 31 28 27 13 7 11 2 7 5 4 3 4 5 9 12 2 16 20 11 11 13 10 20 4 7 16 11 5 11 3 3 3 7
21 22 24 24 23 26 28 28 27 26 29 30 33 35 31 15 10 6 6 3 10 7 10 3 4 3 6 6 5 6 12 16 19 6 5 7 6 20 7 10 10 18 11 5 7 6 5
22 22 22 23 25 24 26 29 28 28 28 29 32 34 33 13 11 4 8 9 5 5 5 9 10 3 6 8 6 9 12 17 15 19 8 8 7 4 11 5 15 8 9 9 3 3 2
24 27 27 26 27 27 26 28 27 27 27 27 30 26 25 8 15 12 5 15 7 5 15 9 6 5 5 6 7 13 11 9 19 21 18 4 3 4 1 5 4 16 13 5 3 3 4
24 25 29 30 31 27 28 27 27 26 26 25 25 11 17 17 24 11 5 5 8 18 16 8 8 7 10 7 5 9 7 9 20 22 24 5 4 3 8 10 16 4 13 4 6 4 2
27 25 29 29 29 27 29 28 26 25 23 22 13 3 25 16 5 4 4 8 12 11 17 8 7 11 12 16 7 7 6 8 7 13 26 26 2 4 9 2 7 5 5 16 7 6 8
28 27 28 28 29 27 27 23 24 23 20 22 6 13 19 15 2 3 8 12 8 15 14 7 8 6 10 16 8 11 5 8 21 6 12 16 5 2 2 5 4 10 14 21 4 3 9
27 27 28 30 31 29 24 23 22 22 19 19 6 3 7 11 2 4 5 7 12 13 13 10 10 11 12 9 8 6 8 10 24 19 19 18 8 10 10 5 6 6 7 6 6 4 6
28 28 28 30 29 31 24 23 23 22 19 16 6 4 4 4 5 5 2 5 12 12 9 8 5 16 9 5 14 4 10 19 17 21 11 15 13 11 8 4 4 5 16 19 9 17 8
29 28 28 29 28 29 25 23 23 22 20 18 7 4 5 10 15 6 5 3 12 7 7 13 11 19 17 13 12 22 17 13 11 7 11 10 7 15 7 3 7 5 13 14 23 12 16
29 28 29 28 29 27 26 25 23 21 17 19 13 18 18 7 2 3 5 5 8 12 9 9 16 14 18 20 19 17 24 32 23 21 17 8 3 5 6 6 6 6 14 20 15 18 11
29 29 29 29 29 28 27 25 22 20 18 19 22 22 8 6 6 5 8 13 14 10 12 18 20 12 15 31 27 27 32 31 22 22 22 12 9 3 4 5 9 10 12 14 20 17 18
30 29 28 28 27 26 25 24 22 20 21 23 22 18 9 7 7 9 13 9 12 17 17 15 25 24 22 22 7 6 7 5 12 18 19 13 9 4 5 5 5 4 4 10 13 18 18
29 29 29 29 26 26 25 24 23 23 23 23 22 20 19 8 7 17 6 15 11 7 6 11 18 19 16 4 3 5 6 6 6 5 11 6 12 10 3 11 17 2 3 4 3 12 13
28 27 28 27 27 27 26 24 23 21 22 20 23 19 19 11 15 14 6 4 6 6 5 11 8 9 17 4 6 7 7 7 8 12 7 8 3 13 8 6 6 3 3 3 9 6 5
29 28 28 27 27 27 26 24 21 20 21 20 21 17 17 9 21 28 27 24 16 12 9 14 12 5 3 4 4 2 7 9 4 9 13 10 8 6 2 3 6 5 3 6 3 7 11
27 29 29 29 30 29 28 26 22 21 22 21 24 21 21 20 26 35 36 36 36 40 34 22 13 8 5 3 3 3 7 6 3 6 1 6 9 6 6 5 2 6 4 5 4 12 18
Wind_Direction
332 327 326 327 336 324 324 323 329 336 332 335 335 333 332 329 330 325 324 314 292 286 284 286 288 287 284 251 257 253 267 266 232 223 230 212 232 232 213 200 241 237 249 190 178 188 217
327 322 314 310 312 310 313 312 312 314 317 320 322 324 320 328 325 322 316 315 301 286 281 280 280 276 263 253 262 234 256 252 267 207 224 211 228 220 267 229 220 267 239 207 194 181 196
354 358 353 351 2 355 342 345 344 330 312 309 317 322 324 319 314 314 314 306 305 288 277 274 272 267 255 249 237 223 233 242 248 211 222 221 231 249 308 245 278 257 245 98 191 203 204
11 12 10 8 0 2 2 356 354 351 349 347 341 329 314 310 305 308 306 304 297 293 276 265 260 252 255 266 226 213 217 233 207 216 221 229 231 267 238 281 342 297 193 211 168 164 175
14 9 4 357 2 358 356 354 353 350 350 346 341 340 339 333 312 298 300 297 298 291 273 255 248 232 264 268 223 218 215 229 211 208 210 198 230 228 198 158 12 267 216 196 168 184 154
18 8 6 0 2 359 357 355 352 350 348 345 339 334 333 329 323 316 309 302 302 278 265 242 230 244 252 238 235 222 213 216 196 195 183 203 218 177 225 174 208 200 202 206 190 187 175
13 8 1 2 3 357 355 352 350 349 346 342 339 336 332 329 325 332 314 332 336 285 212 212 210 204 255 232 226 222 199 194 192 182 176 187 199 214 198 218 11 317 241 225 215 175 176
8 6 4 360 359 355 351 349 349 346 345 339 336 334 335 332 332 336 334 331 353 315 288 259 253 247 250 288 203 211 191 182 189 201 160 167 223 215 241 217 215 257 270 285 266 180 193
1 358 356 356 350 349 345 346 346 344 344 339 338 338 337 332 346 31 345 305 329 336 268 270 245 247 238 227 227 196 189 191 191 197 190 203 169 212 207 218 207 220 233 234 250 116 206
352 348 348 347 342 339 341 342 339 340 337 336 334 334 339 341 342 321 275 335 328 335 280 281 216 255 223 201 239 220 197 186 204 206 196 226 234 227 208 215 200 214 214 251 244 148 213
348 341 341 338 336 336 338 336 336 335 334 333 331 331 339 337 312 313 321 309 335 303 306 252 221 210 186 177 160 203 206 196 196 172 179 215 193 209 221 230 201 223 157 292 253 208 337
336 337 337 335 336 335 336 335 333 335 333 331 329 334 335 330 315 323 336 323 306 223 246 278 162 172 128 198 224 66 178 197 218 222 212 213 221 201 214 222 215 141 133 246 110 90 224
333 330 328 327 330 328 329 327 328 334 334 332 333 339 330 323 303 316 320 328 209 221 273 238 228 190 197 195 221 206 183 201 198 199 211 213 226 218 180 203 185 127 120 219 98 177 235
328 326 323 326 326 326 322 322 323 324 326 331 333 339 332 5 359 5 311 240 232 207 231 295 29 189 191 159 220 211 190 205 227 236 171 184 213 204 175 199 177 171 168 175 175 190 227
322 321 318 315 313 316 323 321 323 323 324 328 331 340 339 0 359 271 199 222 231 200 267 5 345 221 213 213 189 197 212 215 215 225 213 182 235 146 169 171 152 172 201 195 20 238 140
321 318 317 316 314 314 312 317 320 321 322 325 330 340 338 336 314 328 190 232 261 294 321 347 316 296 325 324 238 188 189 217 221 221 234 263 211 201 162 129 177 172 168 179 140 229 205
320 317 321 319 316 317 315 314 318 319 321 324 331 321 334 323 312 299 270 225 260 266 304 300 298 302 278 300 238 279 229 228 200 207 218 216 157 268 134 203 195 163 172 160 156 221 202
323 324 322 319 313 312 311 317 317 321 322 325 327 300 326 329 334 284 284 342 351 335 322 286 265 273 262 279 270 259 223 290 308 211 204 217 172 175 205 230 192 247 219 185 172 197 219
320 322 320 318 311 314 316 316 315 316 321 317 286 279 323 302 272 324 9 338 340 343 329 317 299 293 309 295 290 266 323 287 312 280 205 209 211 91 63 327 249 207 209 199 155 100 194
320 321 321 322 317 318 315 316 315 313 317 311 278 305 294 298 345 120 339 318 322 325 316 335 320 340 351 327 317 285 283 302 313 309 273 186 188 208 206 205 150 222 208 217 175 150 179
322 321 321 320 311 316 314 314 313 313 312 307 249 245 251 288 304 304 270 288 295 308 321 342 311 317 351 301 315 22 344 332 309 310 282 225 208 200 227 185 209 224 200 191 203 214 195
322 320 319 318 316 318 315 313 311 311 308 288 243 248 268 263 275 286 312 258 280 283 325 308 292 320 308 290 286 298 316 310 283 314 345 306 238 211 234 148 209 222 212 211 217 212 240
324 322 319 317 316 315 315 314 311 314 308 289 275 269 246 228 214 219 256 240 277 303 300 294 307 302 295 293 292 279 281 275 262 270 285 271 250 141 217 153 86 294 204 208 220 225 194
322 322 322 320 317 314 313 313 311 310 309 295 289 289 240 264 221 210 256 276 284 286 278 296 296 288 277 302 302 291 274 258 247 240 231 255 286 294 156 107 205 259 181 199 206 224 209
326 322 322 318 321 317 315 313 306 306 304 300 293 285 274 276 249 255 255 261 292 283 285 282 287 282 297 310 284 313 284 224 219 224 221 213 240 233 183 220 305 250 192 177 180 231 216
325 324 320 322 321 318 314 311 307 305 307 297 293 289 274 280 247 247 253 278 276 269 283 256 284 293 282 273 256 233 250 198 189 174 184 168 221 217 162 210 229 177 235 208 101 249 195
330 326 325 324 320 317 315 313 310 311 311 305 297 294 280 253 261 257 227 231 255 263 267 280 277 281 270 222 228 228 237 249 169 189 167 176 160 209 217 210 268 275 260 293 165 244 194
328 331 331 329 325 323 320 317 314 315 311 313 305 304 290 276 289 277 269 264 264 251 264 272 318 282 235 243 256 253 257 217 134 180 168 164 181 196 153 106 268 13 308 198 286 309 194
326 328 330 328 324 321 320 315 311 309 305 305 300 307 301 284 274 286 282 279 268 271 264 262 242 268 267 287 257 281 291 296 185 170 118 158 179 170 176 185 306 352 346 3 120 105 116